Estación de El Refugio
Ultimos registro cada 15 minutos 58
| N° | Estación | Fecha / Hora | Temperatura | Humedad | Lluvia | Velocidad | Dirección | Radiación | Presion |
| 58 | El Refugio | 10-05-2026 14:30 | 28,1 | 19 | 0 | 0 | 233 | 526 | 1032,9 |
| 57 | El Refugio | 10-05-2026 14:15 | 27,8 | 19 | 0 | 0 | 233 | 548 | 1033 |
| 56 | El Refugio | 10-05-2026 14:00 | 27,5 | 19 | 0 | 0 | 233 | 568 | 1033,2 |
| 55 | El Refugio | 10-05-2026 13:45 | 26,9 | 20 | 0 | 0 | 233 | 584 | 1033,3 |
| 54 | El Refugio | 10-05-2026 13:30 | 26,5 | 23 | 0 | 0 | 234 | 598 | 1033,6 |
| 53 | El Refugio | 10-05-2026 13:15 | 26,1 | 25 | 0 | 0 | 234 | 608 | 1033,7 |
| 52 | El Refugio | 10-05-2026 13:00 | 25,5 | 27 | 0 | 0 | 234 | 613 | 1033,8 |
| 51 | El Refugio | 10-05-2026 12:45 | 24,7 | 28 | 0 | 0 | 255 | 617 | 1034,1 |
| 50 | El Refugio | 10-05-2026 12:30 | 23,8 | 30 | 0 | 0 | 241 | 615 | 1034,2 |
| 49 | El Refugio | 10-05-2026 12:15 | 23 | 37 | 0 | 0 | 241 | 610 | 1034,3 |
| 48 | El Refugio | 10-05-2026 12:00 | 22,2 | 39 | 0 | 0 | 236 | 599 | 1034,5 |
| 47 | El Refugio | 10-05-2026 11:45 | 21,4 | 42 | 0 | 0 | 236 | 580 | 1034,8 |
| 46 | El Refugio | 10-05-2026 11:30 | 20,4 | 44 | 0 | 0 | 69 | 563 | 1035 |
| 45 | El Refugio | 10-05-2026 11:00 | 19,4 | 45 | 0 | 0 | 69 | 541 | 1035,2 |
| 44 | El Refugio | 10-05-2026 10:45 | 18,9 | 49 | 0 | 0 | 67 | 517 | 1035,3 |
| 43 | El Refugio | 10-05-2026 10:30 | 18 | 48 | 0 | 0 | 67 | 490 | 1035,3 |
| 42 | El Refugio | 10-05-2026 10:15 | 17,8 | 52 | 0 | 0 | 67 | 459 | 1035,4 |
| 41 | El Refugio | 10-05-2026 10:00 | 16,2 | 55 | 0 | 0 | 67 | 424 | 1035,2 |
| 40 | El Refugio | 10-05-2026 09:45 | 15,1 | 58 | 0 | 0 | 67 | 392 | 1035,3 |
| 39 | El Refugio | 10-05-2026 09:30 | 14,5 | 61 | 0 | 0 | 67 | 352 | 1035,4 |
| 38 | El Refugio | 10-05-2026 09:15 | 12,4 | 68 | 0 | 0 | 67 | 311 | 1035,5 |
| 37 | El Refugio | 10-05-2026 09:00 | 10,5 | 73 | 0 | 0 | 67 | 272 | 1035,7 |
| 36 | El Refugio | 10-05-2026 08:45 | 8,2 | 82 | 0 | 0 | 68 | 183 | 1035,8 |
| 35 | El Refugio | 10-05-2026 08:30 | 5,9 | 89 | 0 | 0 | 68 | 171 | 1035,7 |
| 34 | El Refugio | 10-05-2026 08:15 | 4,1 | 89 | 0 | 0 | 68 | 116 | 1035,5 |
| 33 | El Refugio | 10-05-2026 08:00 | 3,4 | 87 | 0 | 0 | 71 | 32 | 1035,4 |
| 32 | El Refugio | 10-05-2026 07:45 | 3,4 | 86 | 0 | 0 | 71 | 9 | 1035,2 |
| 31 | El Refugio | 10-05-2026 07:30 | 3,4 | 87 | 0 | 0 | 71 | 5 | 1035,1 |
| 30 | El Refugio | 10-05-2026 07:15 | 3,2 | 87 | 0 | 0 | 71 | 0 | 1035,2 |
| 29 | El Refugio | 10-05-2026 07:00 | 3,2 | 87 | 0 | 0 | 73 | 0 | 1035,2 |
| 28 | El Refugio | 10-05-2026 06:45 | 3,2 | 88 | 0 | 0 | 73 | 0 | 1035 |
| 27 | El Refugio | 10-05-2026 06:30 | 3,4 | 86 | 0 | 0 | 73 | 0 | 1035 |
| 26 | El Refugio | 10-05-2026 06:15 | 3,7 | 86 | 0 | 0 | 73 | 0 | 1035,2 |
| 25 | El Refugio | 10-05-2026 06:00 | 3,8 | 87 | 0 | 0 | 73 | 0 | 1035,1 |
| 24 | El Refugio | 10-05-2026 05:45 | 3,8 | 87 | 0 | 0 | 73 | 0 | 1035 |
| 23 | El Refugio | 10-05-2026 05:30 | 4 | 86 | 0 | 0 | 73 | 0 | 1034,9 |
| 22 | El Refugio | 10-05-2026 05:15 | 4,2 | 86 | 0 | 0 | 73 | 0 | 1035 |
| 21 | El Refugio | 10-05-2026 05:00 | 4,2 | 87 | 0 | 0 | 73 | 0 | 1035 |
| 20 | El Refugio | 10-05-2026 04:45 | 4,2 | 87 | 0 | 0 | 73 | 0 | 1034,9 |
| 19 | El Refugio | 10-05-2026 04:30 | 4,3 | 87 | 0 | 0 | 73 | 0 | 1034,9 |
| 18 | El Refugio | 10-05-2026 04:15 | 4,6 | 87 | 0 | 0 | 73 | 0 | 1034,9 |
| 17 | El Refugio | 10-05-2026 04:00 | 4,6 | 87 | 0 | 0 | 73 | 0 | 1035 |
| 16 | El Refugio | 10-05-2026 03:45 | 4,7 | 88 | 0 | 0 | 73 | 0 | 1035 |
| 15 | El Refugio | 10-05-2026 03:30 | 4,6 | 88 | 0 | 0 | 73 | 0 | 1034,9 |
| 14 | El Refugio | 10-05-2026 03:15 | 4,6 | 87 | 0 | 0 | 110 | 0 | 1034,9 |
| 13 | El Refugio | 10-05-2026 03:00 | 4,7 | 86 | 0 | 0 | 110 | 0 | 1035,2 |
| 12 | El Refugio | 10-05-2026 02:45 | 5,1 | 86 | 0 | 0 | 110 | 0 | 1035,5 |
| 11 | El Refugio | 10-05-2026 02:30 | 5,2 | 86 | 0 | 0 | 110 | 0 | 1035,5 |
| 10 | El Refugio | 10-05-2026 02:15 | 5,3 | 86 | 0 | 0 | 110 | 0 | 1035,7 |
| 9 | El Refugio | 10-05-2026 02:00 | 5,3 | 86 | 0 | 0 | 110 | 0 | 1035,8 |
| 8 | El Refugio | 10-05-2026 01:45 | 5,5 | 86 | 0 | 0 | 110 | 0 | 1035,8 |
| 7 | El Refugio | 10-05-2026 01:30 | 5,6 | 86 | 0 | 0 | 110 | 0 | 1035,8 |
| 6 | El Refugio | 10-05-2026 01:15 | 5,7 | 86 | 0 | 0 | 110 | 0 | 1035,9 |
| 5 | El Refugio | 10-05-2026 01:00 | 5,8 | 85 | 0 | 0 | 110 | 0 | 1035,8 |
| 4 | El Refugio | 10-05-2026 00:45 | 6,1 | 85 | 0 | 0 | 110 | 0 | 1035,8 |
| 3 | El Refugio | 10-05-2026 00:30 | 6,4 | 84 | 0 | 0 | 110 | 0 | 1035,9 |
| 2 | El Refugio | 10-05-2026 00:15 | 6,8 | 84 | 0 | 0 | 110 | 0 | 1035,9 |
| 1 | El Refugio | 10-05-2026 00:00 | 7,1 | 83 | 0 | 0 | 110 | 0 | 1036 |